| time (UTC) | temp F | wind direction | speed MPH | gust MPH | rain 1hr in | rain 24hr in | rain mn in | humidity % | barometer mb |
| 20260509183043 | 73 | 23 | 3.0 | 4.0 | 0.00 | 0.00 | 0.00 | 62 | 1029.0 |
| 20260509182539 | 72 | 135 | 0.0 | 4.0 | 0.00 | 0.00 | 0.00 | 61 | 1029.1 |
| 20260509182036 | 71 | 144 | 0.0 | 3.0 | 0.00 | 0.00 | 0.00 | 63 | 1028.8 |
| 20260509181535 | 71 | 322 | 2.0 | 5.0 | 0.00 | 0.00 | 0.00 | 60 | 1029.3 |
| 20260509181031 | 72 | 274 | 0.0 | 5.0 | 0.00 | 0.00 | 0.00 | 60 | 1029.3 |
| 20260509180527 | 72 | 168 | 3.0 | 5.0 | 0.00 | 0.00 | 0.00 | 63 | 1029.2 |
| 20260509180025 | 71 | 208 | 2.0 | 9.0 | 0.00 | 0.00 | 0.00 | 60 | 1029.0 |
| 20260509175520 | 71 | 68 | 2.0 | 10.0 | 0.00 | 0.00 | 0.00 | 62 | 1029.1 |
| 20260509175017 | 71 | 135 | 2.0 | 5.0 | 0.00 | 0.00 | 0.00 | 65 | 1029.2 |
| 20260509174514 | 71 | 180 | 0.0 | 4.0 | 0.00 | 0.00 | 0.00 | 62 | 1029.3 |
| 20260509174008 | 71 | 172 | 0.0 | 4.0 | 0.00 | 0.00 | 0.00 | 63 | 1029.1 |
| 20260509173503 | 71 | 40 | 3.0 | 4.0 | 0.00 | 0.00 | 0.00 | 65 | 1029.1 |
| 20260509173000 | 71 | 98 | 1.0 | 2.0 | 0.00 | 0.00 | 0.00 | 64 | 1029.0 |
| 20260509172457 | 71 | 112 | 3.0 | 6.0 | 0.00 | 0.00 | 0.00 | 64 | 1029.2 |
| 20260509171952 | 70 | 358 | 4.0 | 7.0 | 0.00 | 0.00 | 0.00 | 64 | 1029.7 |
| 20260509171449 | 70 | 168 | 1.0 | 5.0 | 0.00 | 0.00 | 0.00 | 66 | 1029.3 |
| 20260509170945 | 69 | 4 | 2.0 | 6.0 | 0.00 | 0.00 | 0.00 | 65 | 1029.5 |
| 20260509170441 | 70 | 15 | 2.0 | 3.0 | 0.00 | 0.00 | 0.00 | 68 | 1029.5 |
| 20260509165936 | 69 | 90 | 0.0 | 3.0 | 0.00 | 0.00 | 0.00 | 66 | 1029.6 |
| 20260509165430 | 69 | 20 | 4.0 | 5.0 | 0.00 | 0.00 | 0.00 | 67 | 1029.5 |
| 20260509164926 | 69 | 261 | 2.0 | 7.0 | 0.00 | 0.00 | 0.00 | 64 | 1029.7 |
| 20260509164422 | 68 | 350 | 4.0 | 9.0 | 0.00 | 0.00 | 0.00 | 66 | 1029.8 |
| 20260509163919 | 68 | 30 | 3.0 | 5.0 | 0.00 | 0.00 | 0.00 | 66 | 1029.6 |
| 20260509163416 | 68 | 346 | 5.0 | 9.0 | 0.00 | 0.00 | 0.00 | 67 | 1029.8 |
| 20260509162915 | 68 | 286 | 2.0 | 11.0 | 0.00 | 0.00 | 0.00 | 69 | 1030.2 |
| 20260509162414 | 68 | 0 | 5.0 | 6.0 | 0.00 | 0.00 | 0.00 | 70 | 1029.8 |
| 20260509161909 | 67 | 321 | 5.0 | 7.0 | 0.00 | 0.00 | 0.00 | 70 | 1030.2 |
| 20260509161406 | 67 | 0 | 0.0 | 8.0 | 0.00 | 0.00 | 0.00 | 70 | 1030.0 |
| 20260509160902 | 66 | 341 | 2.0 | 5.0 | 0.00 | 0.00 | 0.00 | 74 | 1030.0 |
| 20260509160357 | 66 | 19 | 5.0 | 8.0 | 0.00 | 0.00 | 0.00 | 75 | 1030.2 |
| 20260509155853 | 65 | 251 | 1.0 | 5.0 | 0.00 | 0.00 | 0.00 | 75 | 1030.1 |
| 20260509155350 | 65 | 161 | 2.0 | 4.0 | 0.00 | 0.00 | 0.00 | 74 | 1029.8 |
| 20260509154846 | 66 | 157 | 2.0 | 7.0 | 0.00 | 0.00 | 0.00 | 73 | 1029.8 |
| 20260509154343 | 65 | 39 | 8.0 | 11.0 | 0.00 | 0.00 | 0.00 | 74 | 1030.2 |
| 20260509153839 | 65 | 15 | 0.0 | 2.0 | 0.00 | 0.00 | 0.00 | 79 | 1029.7 |
| 20260509153337 | 64 | 26 | 4.0 | 5.0 | 0.00 | 0.00 | 0.00 | 77 | 1030.3 |
| 20260509152833 | 64 | 326 | 2.0 | 5.0 | 0.00 | 0.00 | 0.00 | 78 | 1030.2 |
| 20260509152329 | 64 | 180 | 2.0 | 10.0 | 0.00 | 0.00 | 0.00 | 78 | 1030.3 |
| 20260509151827 | 64 | 147 | 2.0 | 5.0 | 0.00 | 0.00 | 0.00 | 78 | 1030.2 |
| 20260509151322 | 63 | 157 | 0.0 | 4.0 | 0.00 | 0.00 | 0.00 | 78 | 1030.2 |
| 20260509150821 | 64 | 45 | 0.0 | 5.0 | 0.00 | 0.00 | 0.00 | 80 | 1030.0 |
| 20260509150318 | 64 | 75 | 3.0 | 3.0 | 0.00 | 0.00 | 0.00 | 81 | 1030.1 |
| 20260509145815 | 63 | 12 | 6.0 | 17.0 | 0.00 | 0.00 | 0.00 | 80 | 1029.7 |
| 20260509145316 | 63 | 78 | 2.0 | 5.0 | 0.00 | 0.00 | 0.00 | 80 | 1029.8 |
| 20260509144812 | 63 | 34 | 2.0 | 6.0 | 0.00 | 0.00 | 0.00 | 80 | 1029.7 |
| 20260509144309 | 62 | 150 | 3.0 | 6.0 | 0.00 | 0.00 | 0.00 | 83 | 1029.7 |
| 20260509143806 | 62 | 177 | 2.0 | 3.0 | 0.00 | 0.00 | 0.00 | 83 | 1029.6 |
| 20260509143304 | 62 | 148 | 2.0 | 3.0 | 0.00 | 0.00 | 0.00 | 84 | 1029.6 |
| 20260509142800 | 62 | 47 | 6.0 | 6.0 | 0.00 | 0.00 | 0.00 | 82 | 1029.2 |
| 20260509142256 | 62 | 53 | 0.0 | 3.0 | 0.00 | 0.00 | 0.00 | 83 | 1029.1 |
| 20260509141751 | 61 | 33 | 2.0 | 6.0 | 0.00 | 0.00 | 0.00 | 83 | 1029.2 |
| 20260509141249 | 60 | 38 | 2.0 | 4.0 | 0.00 | 0.00 | 0.00 | 83 | 1029.2 |
| 20260509140745 | 60 | 165 | 0.0 | 6.0 | 0.00 | 0.00 | 0.00 | 84 | 1029.5 |
| 20260509140242 | 60 | 349 | 2.0 | 2.0 | 0.00 | 0.00 | 0.00 | 86 | 1029.4 |
| 20260509135740 | 59 | 157 | 0.0 | 0.0 | 0.00 | 0.00 | 0.00 | 86 | 1029.4 |
| 20260509135238 | 59 | 157 | 0.0 | 2.0 | 0.00 | 0.00 | 0.00 | 86 | 1029.6 |
| 20260509134734 | 59 | 166 | 2.0 | 2.0 | 0.00 | 0.00 | 0.00 | 87 | 1029.6 |
| 20260509134232 | 58 | 188 | 0.0 | 3.0 | 0.00 | 0.00 | 0.00 | 88 | 1029.7 |
| 20260509133729 | 58 | 140 | 0.0 | 2.0 | 0.00 | 0.00 | 0.00 | 88 | 1029.6 |
| 20260509133225 | 57 | 106 | 1.0 | 4.0 | 0.00 | 0.00 | 0.00 | 88 | 1029.5 |
| 20260509132724 | 57 | 132 | 0.0 | 2.0 | 0.00 | 0.00 | 0.00 | 88 | 1029.5 |
| 20260509132223 | 57 | 172 | 0.0 | 0.0 | 0.00 | 0.00 | 0.00 | 88 | 1029.4 |
| 20260509131719 | 57 | 156 | 0.0 | 2.0 | 0.00 | 0.00 | 0.00 | 87 | 1029.4 |
| 20260509131215 | 57 | 29 | 0.0 | 3.0 | 0.00 | 0.00 | 0.00 | 87 | 1029.5 |
| 20260509130711 | 56 | 14 | 2.0 | 3.0 | 0.00 | 0.00 | 0.00 | 89 | 1029.7 |
| 20260509130207 | 56 | 14 | 2.0 | 3.0 | 0.00 | 0.00 | 0.00 | 90 | 1029.5 |
| 20260509125704 | 55 | 23 | 1.0 | 3.0 | 0.00 | 0.00 | 0.00 | 90 | 1029.7 |
| 20260509125201 | 55 | 6 | 1.0 | 2.0 | 0.00 | 0.00 | 0.00 | 91 | 1029.5 |
| 20260509124657 | 54 | 345 | 2.0 | 2.0 | 0.00 | 0.00 | 0.00 | 93 | 1029.6 |
| 20260509124154 | 53 | 7 | 1.0 | 2.0 | 0.00 | 0.00 | 0.00 | 94 | 1029.6 |
| 20260509123653 | 53 | 0 | 2.0 | 3.0 | 0.00 | 0.00 | 0.00 | 95 | 1030.2 |
| 20260509123149 | 52 | 0 | 1.0 | 2.0 | 0.00 | 0.00 | 0.00 | 95 | 1030.0 |
| 20260509122644 | 52 | 8 | 2.0 | 4.0 | 0.00 | 0.00 | 0.00 | 95 | 1030.0 |
| 20260509122142 | 52 | 8 | 2.0 | 3.0 | 0.00 | 0.00 | 0.00 | 95 | 1029.8 |
| 20260509121638 | 52 | 12 | 4.0 | 4.0 | 0.00 | 0.00 | 0.00 | 94 | 1029.6 |
| 20260509121136 | 52 | 151 | 0.0 | 0.0 | 0.00 | 0.00 | 0.00 | 94 | 1030.0 |
| 20260509120634 | 52 | 145 | 3.0 | 3.0 | 0.00 | 0.00 | 0.00 | 94 | 1029.7 |
| 20260509120132 | 52 | 159 | 2.0 | 2.0 | 0.00 | 0.00 | 0.00 | 93 | 1029.7 |
| 20260509115629 | 52 | 157 | 1.0 | 3.0 | 0.00 | 0.00 | 0.00 | 92 | 1029.5 |
| 20260509115127 | 53 | 135 | 2.0 | 2.0 | 0.00 | 0.00 | 0.00 | 92 | 1029.4 |
| 20260509114624 | 53 | 126 | 0.0 | 1.0 | 0.00 | 0.00 | 0.00 | 92 | 1029.2 |
| 20260509114123 | 53 | 117 | 0.0 | 2.0 | 0.00 | 0.00 | 0.00 | 92 | 1029.2 |
| 20260509113621 | 53 | 157 | 0.0 | 1.0 | 0.00 | 0.00 | 0.00 | 92 | 1029.1 |
| 20260509113118 | 52 | 0 | 0.0 | 0.0 | 0.00 | 0.00 | 0.00 | 92 | 1029.1 |
| 20260509112614 | 52 | 8 | 0.0 | 2.0 | 0.00 | 0.00 | 0.00 | 92 | 1029.4 |
| 20260509112112 | 51 | 346 | 0.0 | 3.0 | 0.00 | 0.00 | 0.00 | 93 | 1029.3 |
| 20260509111609 | 51 | 356 | 4.0 | 4.0 | 0.00 | 0.00 | 0.00 | 92 | 1029.3 |
| 20260509111106 | 52 | 350 | 2.0 | 3.0 | 0.00 | 0.00 | 0.00 | 93 | 1029.5 |
| 20260509110603 | 52 | 350 | 2.0 | 2.0 | 0.00 | 0.00 | 0.00 | 93 | 1029.5 |
| 20260509110100 | 52 | 11 | 1.0 | 2.0 | 0.00 | 0.00 | 0.00 | 93 | 1029.7 |
| 20260509105558 | 52 | 5 | 0.0 | 0.0 | 0.00 | 0.00 | 0.00 | 93 | 1029.5 |
| 20260509105055 | 51 | 5 | 0.0 | 2.0 | 0.00 | 0.00 | 0.00 | 93 | 1029.7 |
| 20260509104552 | 52 | 26 | 2.0 | 2.0 | 0.00 | 0.00 | 0.00 | 93 | 1029.8 |
| 20260509104049 | 52 | 114 | 0.0 | 0.0 | 0.00 | 0.00 | 0.00 | 92 | 1029.6 |
| 20260509103547 | 52 | 114 | 0.0 | 0.0 | 0.00 | 0.00 | 0.00 | 92 | 1029.6 |
| 20260509103045 | 52 | 8 | 0.0 | 0.0 | 0.00 | 0.00 | 0.00 | 92 | 1029.4 |
| 20260509102542 | 52 | 8 | 0.0 | 2.0 | 0.00 | 0.00 | 0.00 | 92 | 1029.4 |
| 20260509102039 | 52 | 12 | 1.0 | 2.0 | 0.00 | 0.00 | 0.00 | 93 | 1029.4 |
| 20260509101535 | 51 | 345 | 0.0 | 2.0 | 0.00 | 0.00 | 0.00 | 92 | 1029.7 |
| 20260509101032 | 52 | 14 | 1.0 | 1.0 | 0.00 | 0.00 | 0.00 | 91 | 1029.7 |
| 20260509100529 | 52 | 120 | 0.0 | 2.0 | 0.00 | 0.00 | 0.00 | 92 | 1029.8 |
| 20260509100027 | 52 | 66 | 0.0 | 0.0 | 0.00 | 0.00 | 0.00 | 92 | 1029.5 |
| 20260509095523 | 51 | 20 | 0.0 | 0.0 | 0.00 | 0.00 | 0.00 | 92 | 1029.3 |
| 20260509095021 | 51 | 35 | 0.0 | 2.0 | 0.00 | 0.00 | 0.00 | 93 | 1029.0 |
| 20260509094516 | 51 | 0 | 1.0 | 2.0 | 0.00 | 0.00 | 0.00 | 92 | 1029.0 |
| 20260509094014 | 52 | 0 | 0.0 | 3.0 | 0.00 | 0.00 | 0.00 | 90 | 1029.3 |
| 20260509093512 | 53 | 15 | 0.0 | 1.0 | 0.00 | 0.00 | 0.00 | 89 | 1029.3 |
| 20260509093009 | 53 | 166 | 0.0 | 2.0 | 0.00 | 0.00 | 0.00 | 89 | 1029.1 |
| 20260509092507 | 53 | 126 | 0.0 | 2.0 | 0.00 | 0.00 | 0.00 | 89 | 1029.1 |
| 20260509092006 | 53 | 7 | 1.0 | 1.0 | 0.00 | 0.00 | 0.00 | 89 | 1029.0 |
| 20260509091502 | 54 | 0 | 2.0 | 3.0 | 0.00 | 0.00 | 0.00 | 89 | 1029.0 |
| 20260509090959 | 53 | 65 | 2.0 | 3.0 | 0.00 | 0.00 | 0.00 | 90 | 1029.1 |
| 20260509090456 | 52 | 0 | 0.0 | 1.0 | 0.00 | 0.00 | 0.00 | 91 | 1029.0 |
| 20260509085954 | 52 | 15 | 0.0 | 2.0 | 0.00 | 0.00 | 0.00 | 90 | 1029.2 |
| 20260509085451 | 53 | 0 | 0.0 | 1.0 | 0.00 | 0.00 | 0.00 | 89 | 1029.0 |
| 20260509084947 | 53 | 0 | 0.0 | 2.0 | 0.00 | 0.00 | 0.00 | 90 | 1029.0 |
| 20260509084444 | 53 | 0 | 0.0 | 2.0 | 0.00 | 0.00 | 0.00 | 90 | 1029.0 |
| 20260509083941 | 53 | 5 | 2.0 | 2.0 | 0.00 | 0.00 | 0.00 | 89 | 1029.0 |
| 20260509083439 | 53 | 0 | 2.0 | 2.0 | 0.00 | 0.00 | 0.00 | 90 | 1028.9 |
| 20260509082935 | 53 | 14 | 2.0 | 3.0 | 0.00 | 0.00 | 0.00 | 89 | 1029.1 |
| 20260509082432 | 53 | 15 | 0.0 | 2.0 | 0.00 | 0.00 | 0.00 | 90 | 1029.1 |
| 20260509081929 | 53 | 12 | 2.0 | 2.0 | 0.00 | 0.00 | 0.00 | 88 | 1028.8 |
| 20260509081427 | 53 | 23 | 1.0 | 2.0 | 0.00 | 0.00 | 0.00 | 88 | 1029.0 |
| 20260509080924 | 53 | 15 | 0.0 | 1.0 | 0.00 | 0.00 | 0.00 | 89 | 1029.1 |
| 20260509080421 | 53 | 8 | 0.0 | 1.0 | 0.00 | 0.00 | 0.00 | 89 | 1029.0 |
| 20260509075920 | 53 | 6 | 0.0 | 1.0 | 0.00 | 0.00 | 0.00 | 89 | 1029.0 |
| 20260509075416 | 52 | 0 | 0.0 | 2.0 | 0.00 | 0.00 | 0.00 | 90 | 1029.0 |
| 20260509074914 | 52 | 6 | 0.0 | 2.0 | 0.00 | 0.00 | 0.00 | 90 | 1029.0 |
| 20260509074412 | 52 | 4 | 2.0 | 4.0 | 0.00 | 0.00 | 0.00 | 89 | 1029.1 |
| 20260509073908 | 52 | 0 | 0.0 | 0.0 | 0.00 | 0.00 | 0.00 | 90 | 1029.0 |
| 20260509073404 | 52 | 0 | 4.0 | 4.0 | 0.00 | 0.00 | 0.00 | 89 | 1028.9 |
| 20260509072900 | 53 | 5 | 1.0 | 3.0 | 0.00 | 0.00 | 0.00 | 87 | 1028.7 |
| 20260509072357 | 54 | 165 | 0.0 | 2.0 | 0.00 | 0.00 | 0.00 | 85 | 1029.0 |
| 20260509071853 | 54 | 157 | 0.0 | 3.0 | 0.00 | 0.00 | 0.00 | 85 | 1029.1 |
| 20260509071351 | 55 | 165 | 0.0 | 1.0 | 0.00 | 0.00 | 0.00 | 84 | 1029.0 |
| 20260509070848 | 55 | 157 | 1.0 | 2.0 | 0.00 | 0.00 | 0.00 | 83 | 1029.1 |
| 20260509070345 | 55 | 172 | 0.0 | 3.0 | 0.00 | 0.00 | 0.00 | 82 | 1029.0 |
| 20260509065841 | 55 | 154 | 0.0 | 3.0 | 0.00 | 0.00 | 0.00 | 81 | 1029.0 |
| 20260509065337 | 56 | 169 | 1.0 | 2.0 | 0.00 | 0.00 | 0.00 | 80 | 1029.1 |
| 20260509064833 | 57 | 188 | 0.0 | 0.0 | 0.00 | 0.00 | 0.00 | 78 | 1029.0 |
| 20260509064331 | 58 | 131 | 0.0 | 2.0 | 0.00 | 0.00 | 0.00 | 76 | 1029.2 |
| 20260509063828 | 59 | 173 | 0.0 | 0.0 | 0.00 | 0.00 | 0.00 | 74 | 1029.1 |
| 20260509063324 | 59 | 114 | 0.0 | 3.0 | 0.00 | 0.00 | 0.00 | 74 | 1029.2 |
| 20260509062822 | 59 | 105 | 0.0 | 2.0 | 0.00 | 0.00 | 0.00 | 74 | 1028.9 |
| 20260509062319 | 59 | 56 | 2.0 | 3.0 | 0.00 | 0.00 | 0.00 | 74 | 1029.2 |
| 20260509061816 | 59 | 33 | 2.0 | 4.0 | 0.00 | 0.00 | 0.00 | 74 | 1029.3 |
| 20260509061314 | 59 | 50 | 3.0 | 5.0 | 0.00 | 0.00 | 0.00 | 74 | 1029.2 |
| 20260509060811 | 59 | 29 | 3.0 | 3.0 | 0.00 | 0.00 | 0.00 | 74 | 1029.5 |
| 20260509060308 | 57 | 83 | 0.0 | 3.0 | 0.00 | 0.00 | 0.00 | 78 | 1029.4 |
| 20260509055803 | 59 | 82 | 0.0 | 4.0 | 0.00 | 0.00 | 0.00 | 72 | 1029.5 |
| 20260509055259 | 61 | 140 | 0.0 | 4.0 | 0.00 | 0.00 | 0.00 | 72 | 1029.6 |
| 20260509054755 | 61 | 41 | 4.0 | 4.0 | 0.00 | 0.00 | 0.00 | 68 | 1029.6 |
| 20260509054252 | 61 | 172 | 0.0 | 7.0 | 0.00 | 0.00 | 0.00 | 68 | 1029.8 |
| 20260509053751 | 60 | 34 | 2.0 | 6.0 | 0.00 | 0.00 | 0.00 | 69 | 1029.8 |
| 20260509053248 | 61 | 47 | 3.0 | 5.0 | 0.00 | 0.00 | 0.00 | 69 | 1030.0 |
| 20260509052746 | 60 | 54 | 6.0 | 7.0 | 0.00 | 0.00 | 0.00 | 69 | 1030.0 |
| 20260509052243 | 60 | 24 | 2.0 | 5.0 | 0.00 | 0.00 | 0.00 | 70 | 1030.2 |
| 20260509051740 | 60 | 32 | 3.0 | 5.0 | 0.00 | 0.00 | 0.00 | 70 | 1030.1 |
| 20260509051238 | 60 | 47 | 3.0 | 3.0 | 0.00 | 0.00 | 0.00 | 69 | 1030.3 |
| 20260509050735 | 60 | 17 | 3.0 | 5.0 | 0.00 | 0.00 | 0.00 | 68 | 1030.3 |
| 20260509050231 | 60 | 20 | 3.0 | 4.0 | 0.00 | 0.00 | 0.00 | 70 | 1030.4 |
| 20260509045728 | 60 | 5 | 1.0 | 2.0 | 0.00 | 0.00 | 0.00 | 68 | 1030.5 |
| 20260509045225 | 60 | 29 | 3.0 | 3.0 | 0.00 | 0.00 | 0.00 | 68 | 1030.5 |
| 20260509044723 | 60 | 26 | 4.0 | 5.0 | 0.00 | 0.00 | 0.00 | 68 | 1030.6 |
| 20260509044221 | 61 | 26 | 0.0 | 5.0 | 0.00 | 0.00 | 0.00 | 67 | 1030.7 |
| 20260509043716 | 61 | 32 | 3.0 | 4.0 | 0.00 | 0.00 | 0.00 | 67 | 1030.5 |
| 20260509043213 | 60 | 23 | 2.0 | 3.0 | 0.00 | 0.00 | 0.00 | 67 | 1030.7 |
| 20260509042709 | 60 | 9 | 0.0 | 2.0 | 0.00 | 0.00 | 0.00 | 67 | 1030.7 |
| 20260509042205 | 60 | 22 | 0.0 | 3.0 | 0.00 | 0.00 | 0.00 | 68 | 1030.8 |
| 20260509041702 | 59 | 29 | 3.0 | 5.0 | 0.00 | 0.00 | 0.00 | 70 | 1030.6 |
| 20260509041200 | 60 | 19 | 2.0 | 3.0 | 0.00 | 0.00 | 0.00 | 70 | 1030.8 |
| 20260509040658 | 60 | 55 | 2.0 | 2.0 | 0.00 | 0.00 | 0.00 | 68 | 1030.7 |
| 20260509040154 | 61 | 99 | 0.0 | 2.0 | 0.00 | 0.00 | 0.00 | 66 | 1030.9 |
| 20260509035651 | 61 | 15 | 1.0 | 2.0 | 0.00 | 0.00 | 0.00 | 66 | 1030.9 |
| 20260509035148 | 61 | 47 | 3.0 | 4.0 | 0.00 | 0.00 | 0.00 | 66 | 1030.8 |
| 20260509034645 | 61 | 140 | 0.0 | 2.0 | 0.00 | 0.00 | 0.00 | 69 | 1031.0 |
| 20260509034142 | 62 | 68 | 0.0 | 5.0 | 0.00 | 0.00 | 0.00 | 65 | 1031.1 |
| 20260509033639 | 61 | 25 | 3.0 | 5.0 | 0.00 | 0.00 | 0.00 | 66 | 1030.9 |
| 20260509033136 | 61 | 23 | 2.0 | 3.0 | 0.00 | 0.00 | 0.00 | 66 | 1030.9 |
| 20260509032634 | 62 | 5 | 3.0 | 6.0 | 0.00 | 0.00 | 0.00 | 64 | 1030.9 |
| 20260509032130 | 61 | 22 | 3.0 | 5.0 | 0.00 | 0.00 | 0.00 | 65 | 1030.8 |
| 20260509031628 | 61 | 11 | 2.0 | 2.0 | 0.00 | 0.00 | 0.00 | 64 | 1030.9 |
| 20260509031125 | 62 | 66 | 2.0 | 3.0 | 0.00 | 0.00 | 0.00 | 62 | 1031.3 |
| 20260509030624 | 62 | 32 | 3.0 | 3.0 | 0.00 | 0.00 | 0.00 | 63 | 1030.9 |
| 20260509030120 | 62 | 23 | 1.0 | 2.0 | 0.00 | 0.00 | 0.00 | 62 | 1031.1 |
| 20260509025616 | 62 | 8 | 2.0 | 3.0 | 0.00 | 0.00 | 0.00 | 61 | 1031.1 |
| 20260509025112 | 62 | 30 | 2.0 | 3.0 | 0.00 | 0.00 | 0.00 | 61 | 1031.2 |
| 20260509024607 | 62 | 4 | 2.0 | 2.0 | 0.00 | 0.00 | 0.00 | 61 | 1031.1 |
| 20260509024104 | 62 | 0 | 2.0 | 3.0 | 0.00 | 0.00 | 0.00 | 60 | 1031.0 |
| 20260509023602 | 62 | 5 | 1.0 | 2.0 | 0.00 | 0.00 | 0.00 | 60 | 1031.1 |
| 20260509023059 | 62 | 29 | 1.0 | 2.0 | 0.00 | 0.00 | 0.00 | 60 | 1031.2 |
| 20260509022555 | 62 | 15 | 0.0 | 2.0 | 0.00 | 0.00 | 0.00 | 59 | 1031.3 |
| 20260509022053 | 62 | 8 | 0.0 | 1.0 | 0.00 | 0.00 | 0.00 | 60 | 1031.4 |
| 20260509021550 | 62 | 0 | 2.0 | 2.0 | 0.00 | 0.00 | 0.00 | 60 | 1031.1 |
| 20260509021047 | 62 | 356 | 2.0 | 3.0 | 0.00 | 0.00 | 0.00 | 59 | 1031.1 |
| 20260509020545 | 62 | 357 | 2.0 | 3.0 | 0.00 | 0.00 | 0.00 | 61 | 1031.2 |
| 20260509020041 | 62 | 346 | 2.0 | 3.0 | 0.00 | 0.00 | 0.00 | 62 | 1031.1 |
| 20260509015541 | 62 | 352 | 0.0 | 2.0 | 0.00 | 0.00 | 0.00 | 59 | 1031.2 |
| 20260509015037 | 62 | 356 | 2.0 | 2.0 | 0.00 | 0.00 | 0.00 | 57 | 1031.1 |
| 20260509014534 | 62 | 355 | 2.0 | 2.0 | 0.00 | 0.00 | 0.00 | 59 | 1031.0 |
| 20260509014030 | 62 | 354 | 3.0 | 3.0 | 0.00 | 0.00 | 0.00 | 59 | 1031.1 |
| 20260509013527 | 62 | 351 | 2.0 | 3.0 | 0.00 | 0.00 | 0.00 | 61 | 1031.1 |
| 20260509013022 | 62 | 19 | 2.0 | 3.0 | 0.00 | 0.00 | 0.00 | 61 | 1031.0 |
| 20260509012520 | 62 | 36 | 3.0 | 4.0 | 0.00 | 0.00 | 0.00 | 61 | 1030.9 |
| 20260509012016 | 62 | 12 | 2.0 | 4.0 | 0.00 | 0.00 | 0.00 | 62 | 1030.9 |
| 20260509011514 | 62 | 46 | 4.0 | 5.0 | 0.00 | 0.00 | 0.00 | 63 | 1031.2 |
| 20260509011011 | 62 | 28 | 2.0 | 3.0 | 0.00 | 0.00 | 0.00 | 64 | 1031.0 |
| 20260509010509 | 62 | 40 | 3.0 | 5.0 | 0.00 | 0.00 | 0.00 | 64 | 1030.9 |
| 20260509010006 | 62 | 43 | 4.0 | 5.0 | 0.00 | 0.00 | 0.00 | 65 | 1030.7 |
| 20260509005504 | 62 | 15 | 2.0 | 3.0 | 0.00 | 0.00 | 0.00 | 66 | 1030.9 |
| 20260509005004 | 63 | 5 | 3.0 | 3.0 | 0.00 | 0.00 | 0.00 | 62 | 1031.1 |
| 20260509004501 | 64 | 29 | 3.0 | 5.0 | 0.00 | 0.00 | 0.00 | 59 | 1030.8 |
| 20260509003958 | 64 | 56 | 2.0 | 6.0 | 0.00 | 0.00 | 0.00 | 59 | 1030.9 |
| 20260509003456 | 64 | 46 | 5.0 | 6.0 | 0.00 | 0.00 | 0.00 | 60 | 1030.9 |
| 20260509002953 | 64 | 25 | 5.0 | 5.0 | 0.00 | 0.00 | 0.00 | 60 | 1030.8 |
| 20260509002451 | 64 | 40 | 3.0 | 4.0 | 0.00 | 0.00 | 0.00 | 61 | 1031.0 |
| 20260509001948 | 64 | 30 | 2.0 | 3.0 | 0.00 | 0.00 | 0.00 | 63 | 1030.9 |
| 20260509001444 | 65 | 58 | 3.0 | 3.0 | 0.00 | 0.00 | 0.00 | 60 | 1030.8 |
| 20260509000941 | 66 | 30 | 2.0 | 3.0 | 0.00 | 0.00 | 0.00 | 57 | 1031.0 |
| 20260509000440 | 66 | 12 | 0.0 | 3.0 | 0.00 | 0.00 | 0.00 | 56 | 1031.0 |
| 20260508235935 | 66 | 54 | 1.0 | 3.0 | 0.00 | 0.00 | 0.00 | 55 | 1030.8 |
| 20260508235433 | 66 | 38 | 3.0 | 5.0 | 0.00 | 0.00 | 0.00 | 52 | 1030.8 |
| 20260508234929 | 66 | 14 | 1.0 | 2.0 | 0.00 | 0.00 | 0.00 | 52 | 1030.7 |
| 20260508234426 | 66 | 101 | 0.0 | 3.0 | 0.00 | 0.00 | 0.00 | 52 | 1030.9 |
| 20260508233924 | 66 | 6 | 0.0 | 4.0 | 0.00 | 0.00 | 0.00 | 51 | 1030.9 |
| 20260508233423 | 67 | 37 | 3.0 | 3.0 | 0.00 | 0.00 | 0.00 | 52 | 1030.9 |
| 20260508232919 | 67 | 348 | 1.0 | 4.0 | 0.00 | 0.00 | 0.00 | 51 | 1030.9 |
| 20260508232416 | 67 | 45 | 2.0 | 3.0 | 0.00 | 0.00 | 0.00 | 51 | 1030.8 |
| 20260508231914 | 68 | 51 | 2.0 | 4.0 | 0.00 | 0.00 | 0.00 | 51 | 1031.0 |
| 20260508231410 | 69 | 33 | 2.0 | 2.0 | 0.00 | 0.00 | 0.00 | 52 | 1030.9 |
| 20260508230907 | 69 | 128 | 0.0 | 2.0 | 0.00 | 0.00 | 0.00 | 47 | 1031.1 |
| 20260508230404 | 69 | 75 | 0.0 | 4.0 | 0.00 | 0.00 | 0.00 | 47 | 1030.9 |
| 20260508225856 | 68 | 33 | 2.0 | 3.0 | 0.00 | 0.00 | 0.00 | 48 | 1031.0 |
| 20260508225352 | 69 | 101 | 0.0 | 2.0 | 0.00 | 0.00 | 0.00 | 46 | 1030.8 |
| 20260508224850 | 67 | 0 | 0.0 | 1.0 | 0.00 | 0.00 | 0.00 | 50 | 1030.7 |
| 20260508224347 | 68 | 349 | 0.0 | 0.0 | 0.00 | 0.00 | 0.00 | 49 | 1030.7 |
| 20260508223845 | 69 | 19 | 2.0 | 3.0 | 0.00 | 0.00 | 0.00 | 48 | 1031.1 |
| 20260508223342 | 68 | 29 | 2.0 | 4.0 | 0.00 | 0.00 | 0.00 | 48 | 1031.0 |
| 20260508222839 | 69 | 90 | 0.0 | 3.0 | 0.00 | 0.00 | 0.00 | 49 | 1030.7 |
| 20260508222336 | 69 | 73 | 3.0 | 5.0 | 0.00 | 0.00 | 0.00 | 46 | 1031.0 |
| 20260508221833 | 70 | 151 | 1.0 | 3.0 | 0.00 | 0.00 | 0.00 | 50 | 1030.9 |
| 20260508221328 | 70 | 29 | 0.0 | 4.0 | 0.00 | 0.00 | 0.00 | 45 | 1031.1 |
| 20260508220825 | 71 | 40 | 2.0 | 2.0 | 0.00 | 0.00 | 0.00 | 46 | 1031.0 |
| 20260508220321 | 70 | 60 | 2.0 | 4.0 | 0.00 | 0.00 | 0.00 | 47 | 1031.0 |
| 20260508215818 | 72 | 139 | 2.0 | 3.0 | 0.00 | 0.00 | 0.00 | 42 | 1030.9 |
| 20260508215315 | 74 | 36 | 2.0 | 3.0 | 0.00 | 0.00 | 0.00 | 41 | 1031.0 |
| 20260508214812 | 74 | 106 | 0.0 | 2.0 | 0.00 | 0.00 | 0.00 | 41 | 1031.0 |
| 20260508214309 | 72 | 180 | 0.0 | 2.0 | 0.00 | 0.00 | 0.00 | 45 | 1031.1 |
| 20260508213805 | 72 | 174 | 0.0 | 3.0 | 0.00 | 0.00 | 0.00 | 44 | 1031.0 |
| 20260508213302 | 73 | 82 | 2.0 | 5.0 | 0.00 | 0.00 | 0.00 | 42 | 1031.0 |
| 20260508212758 | 71 | 168 | 0.0 | 3.0 | 0.00 | 0.00 | 0.00 | 42 | 1031.0 |
| 20260508212255 | 72 | 187 | 4.0 | 4.0 | 0.00 | 0.00 | 0.00 | 43 | 1031.3 |
| 20260508211751 | 71 | 90 | 0.0 | 7.0 | 0.00 | 0.00 | 0.00 | 40 | 1031.0 |
| 20260508211246 | 71 | 11 | 5.0 | 7.0 | 0.00 | 0.00 | 0.00 | 43 | 1031.0 |
| 20260508210745 | 74 | 357 | 3.0 | 3.0 | 0.00 | 0.00 | 0.00 | 47 | 1031.1 |
| 20260508210241 | 72 | 105 | 1.0 | 3.0 | 0.00 | 0.00 | 0.00 | 45 | 1031.2 |
| 20260508205738 | 73 | 144 | 3.0 | 3.0 | 0.00 | 0.00 | 0.00 | 44 | 1031.3 |
| 20260508205234 | 73 | 15 | 0.0 | 3.0 | 0.00 | 0.00 | 0.00 | 43 | 1031.0 |
| 20260508204731 | 70 | 87 | 3.0 | 6.0 | 0.00 | 0.00 | 0.00 | 46 | 1031.0 |
| 20260508204227 | 68 | 106 | 0.0 | 2.0 | 0.00 | 0.00 | 0.00 | 53 | 1031.1 |
| 20260508203723 | 68 | 31 | 4.0 | 7.0 | 0.00 | 0.00 | 0.00 | 50 | 1031.4 |
| 20260508203220 | 70 | 26 | 3.0 | 5.0 | 0.00 | 0.00 | 0.00 | 49 | 1031.1 |
| 20260508202716 | 70 | 18 | 3.0 | 3.0 | 0.00 | 0.00 | 0.00 | 53 | 1031.2 |
| 20260508202213 | 69 | 0 | 0.0 | 3.0 | 0.00 | 0.00 | 0.00 | 53 | 1031.0 |
| 20260508201710 | 69 | 28 | 0.0 | 2.0 | 0.00 | 0.00 | 0.00 | 52 | 1031.1 |
| 20260508201206 | 69 | 14 | 1.0 | 7.0 | 0.00 | 0.00 | 0.00 | 53 | 1031.1 |
| 20260508200703 | 68 | 154 | 2.0 | 4.0 | 0.00 | 0.00 | 0.00 | 55 | 1031.2 |
| 20260508200159 | 69 | 180 | 0.0 | 3.0 | 0.00 | 0.00 | 0.00 | 53 | 1031.3 |
| 20260508195656 | 70 | 14 | 5.0 | 5.0 | 0.00 | 0.00 | 0.00 | 53 | 1031.4 |
| 20260508195153 | 70 | 151 | 1.0 | 3.0 | 0.00 | 0.00 | 0.00 | 50 | 1031.8 |
| 20260508194649 | 70 | 162 | 1.0 | 2.0 | 0.00 | 0.00 | 0.00 | 50 | 1031.5 |
| 20260508194146 | 70 | 189 | 2.0 | 3.0 | 0.00 | 0.00 | 0.00 | 54 | 1031.6 |
| 20260508193643 | 70 | 156 | 2.0 | 3.0 | 0.00 | 0.00 | 0.00 | 56 | 1032.2 |
| 20260508193140 | 70 | 133 | 3.0 | 4.0 | 0.00 | 0.00 | 0.00 | 53 | 1032.4 |
| 20260508192637 | 70 | 180 | 0.0 | 0.0 | 0.00 | 0.00 | 0.00 | 55 | 1032.4 |
| 20260508192134 | 70 | 154 | 2.0 | 4.0 | 0.00 | 0.00 | 0.00 | 52 | 1032.5 |
| 20260508191630 | 69 | 145 | 0.0 | 4.0 | 0.00 | 0.00 | 0.00 | 54 | 1032.7 |
| 20260508191127 | 69 | 159 | 2.0 | 5.0 | 0.00 | 0.00 | 0.00 | 53 | 1032.8 |
| 20260508190625 | 69 | 189 | 0.0 | 4.0 | 0.00 | 0.00 | 0.00 | 56 | 1032.6 |
| 20260508190121 | 69 | 172 | 2.0 | 4.0 | 0.00 | 0.00 | 0.00 | 50 | 1032.5 |
| 20260508185618 | 69 | 41 | 2.0 | 4.0 | 0.00 | 0.00 | 0.00 | 53 | 1032.7 |
| 20260508185115 | 69 | 67 | 3.0 | 6.0 | 0.00 | 0.00 | 0.00 | 49 | 1032.9 |
| 20260508184613 | 70 | 82 | 0.0 | 3.0 | 0.00 | 0.00 | 0.00 | 55 | 1032.8 |
| 20260508184110 | 68 | 180 | 1.0 | 2.0 | 0.00 | 0.00 | 0.00 | 49 | 1033.0 |
| 20260508183606 | 68 | 148 | 3.0 | 3.0 | 0.00 | 0.00 | 0.00 | 51 | 1032.7 |